OE3TEC-15 Weather Reports


time (UTC)temp
C
wind
direction
speed
KPH
gust
KPH
rain 1hr
cm
rain 24hr
cm
rain mn
cm
humidity
%
barometer
mb
20260507191000 13 235 4.8 9.7 0.00 0.00 0.18 76 1015.4
20260507185953 13 231 3.2 3.2 0.00 0.00 0.18 88 1015.3
20260507184945 13 213 0.0 1.6 0.00 0.00 0.18 89 1014.8
20260507183938 13 222 1.6 3.2 0.00 0.00 0.18 87 1014.9
20260507182932 13 210 0.0 3.2 0.00 0.00 0.18 86 1014.6
20260507181925 13 222 1.6 4.8 0.00 0.00 0.18 86 1014.4
20260507180917 13 213 0.0 3.2 0.00 0.00 0.18 86 1014.3
20260507175909 14 206 0.0 1.6 0.00 0.00 0.18 86 1014.0
20260507174902 14 210 0.0 3.2 0.00 0.00 0.18 85 1013.9
20260507173855 15 206 0.0 3.2 0.00 0.00 0.18 84 1013.9
20260507172849 15 208 0.0 1.6 0.03 0.00 0.18 83 1013.6
20260507171841 15 209 0.0 3.2 0.03 0.00 0.18 79 1013.5
20260507170833 15 143 1.6 4.8 0.08 0.00 0.18 77 1013.4
20260507165826 15 123 3.2 6.4 0.18 0.00 0.18 76 1013.2
20260507164819 15 150 1.6 4.8 0.18 0.00 0.18 72 1013.2
20260507163813 15 110 3.2 6.4 0.18 0.00 0.18 73 1013.0
20260507162806 16 133 1.6 11.3 0.15 0.00 0.15 69 1013.0
20260507161757 17 134 3.2 11.3 0.15 0.00 0.15 63 1013.1
20260507160749 17 119 1.6 6.4 0.08 0.00 0.08 59 1013.1
20260507155743 18 130 1.6 6.4 0.00 0.00 0.00 52 1013.0
20260507154736 20 144 3.2 9.7 0.00 0.00 0.00 46 1012.7
20260507153729 20 135 1.6 6.4 0.00 0.00 0.00 43 1012.6
20260507152721 20 139 1.6 6.4 0.00 0.00 0.00 42 1012.7
20260507151713 21 153 1.6 3.2 0.00 0.00 0.00 42 1012.6
20260507150706 21 199 1.6 6.4 0.00 0.00 0.00 39 1012.7
20260507145659 21 222 3.2 6.4 0.00 0.00 0.00 38 1012.6
20260507144653 21 229 4.8 9.7 0.00 0.00 0.00 38 1012.5
20260507143652 21 204 1.6 4.8 0.00 0.00 0.00 37 1012.5
20260507142646 21 228 4.8 9.7 0.00 0.00 0.00 36 1012.4
20260507141639 21 236 8.0 17.7 0.00 0.00 0.00 38 1012.5
20260507140633 22 245 9.7 20.9 0.00 0.00 0.00 35 1012.4
20260507135625 21 246 12.9 20.9 0.00 0.00 0.00 35 1012.4
20260507134617 22 242 12.9 20.9 0.00 0.00 0.00 34 1012.4
20260507133610 24 211 1.6 16.1 0.00 0.00 0.00 32 1012.3
20260507132605 22 244 9.7 20.9 0.00 0.00 0.00 35 1012.6
20260507131557 22 241 9.7 24.1 0.00 0.00 0.00 35 1012.6
20260507130549 22 215 3.2 9.7 0.00 0.00 0.00 35 1012.7
20260507125542 22 209 1.6 12.9 0.00 0.00 0.00 36 1012.7
20260507124535 22 225 3.2 12.9 0.00 0.00 0.00 37 1012.9
20260507123528 21 236 6.4 14.5 0.00 0.00 0.00 40 1013.1
20260507122520 21 233 6.4 16.1 0.00 0.00 0.00 41 1013.1
20260507121512 21 241 8.0 16.1 0.00 0.00 0.00 40 1013.0
20260507120504 23 189 1.6 11.3 0.00 0.00 0.00 38 1013.1
20260507115458 20 222 3.2 14.5 0.00 0.00 0.00 42 1013.2
20260507114450 21 231 8.0 17.7 0.00 0.00 0.00 44 1013.5
20260507113443 20 227 6.4 17.7 0.00 0.00 0.00 43 1013.3
20260507112437 20 208 3.2 14.5 0.00 0.00 0.00 43 1013.3
20260507111428 20 246 11.3 20.9 0.00 0.00 0.00 44 1013.9
20260507110422 20 226 6.4 20.9 0.00 0.00 0.00 44 1013.7
20260507105415 20 227 6.4 16.1 0.00 0.00 0.00 44 1013.7
20260507104407 20 231 8.0 17.7 0.00 0.00 0.00 43 1013.9
20260507103400 20 233 11.3 22.5 0.00 0.00 0.00 45 1013.9
20260507102353 20 240 9.7 24.1 0.00 0.00 0.00 45 1013.9
20260507101345 20 234 6.4 16.1 0.00 0.00 0.00 44 1014.0
20260507100338 20 249 11.3 22.5 0.00 0.00 0.00 45 1014.0
20260507095331 18 239 11.3 20.9 0.00 0.00 0.00 44 1014.0
20260507094325 18 244 12.9 22.5 0.00 0.00 0.00 48 1013.9
20260507093317 19 243 9.7 22.5 0.00 0.00 0.00 48 1013.9
20260507092310 18 247 9.7 22.5 0.00 0.00 0.00 49 1013.9
20260507091301 17 247 11.3 20.9 0.00 0.00 0.00 50 1013.7
20260507090255 17 246 12.9 22.5 0.00 0.00 0.00 51 1013.9
20260507085248 17 244 11.3 17.7 0.00 0.00 0.00 52 1013.5
20260507084241 17 248 11.3 20.9 0.00 0.00 0.00 52 1013.6
20260507083241 16 241 9.7 20.9 0.00 0.00 0.00 54 1013.5
20260507082234 16 241 8.0 16.1 0.00 0.00 0.00 56 1013.4
20260507081227 16 239 8.0 14.5 0.00 0.00 0.00 55 1013.4
20260507080221 16 247 12.9 22.5 0.00 0.00 0.00 56 1013.5
20260507075214 16 249 12.9 20.9 0.00 0.00 0.00 55 1013.3
20260507074207 16 245 11.3 17.7 0.00 0.00 0.00 57 1013.1
20260507073158 16 248 14.5 22.5 0.00 0.00 0.00 59 1013.2
20260507072151 16 243 11.3 22.5 0.00 0.00 0.00 59 1013.3
20260507071151 16 251 9.7 20.9 0.00 0.00 0.00 59 1013.2
20260507070146 15 241 9.7 16.1 0.00 0.00 0.00 61 1013.3
20260507065138 15 245 12.9 25.7 0.00 0.00 0.00 63 1013.4
20260507064131 15 248 14.5 24.1 0.00 0.00 0.00 63 1013.2
20260507063125 14 246 12.9 24.1 0.00 0.00 0.00 64 1013.2
20260507062117 14 241 9.7 24.1 0.00 0.00 0.00 66 1013.0
20260507061111 13 243 8.0 14.5 0.00 0.00 0.00 68 1012.9
20260507060103 13 242 8.0 14.5 0.00 0.00 0.00 69 1013.0
20260507055055 13 233 6.4 11.3 0.00 0.00 0.00 69 1012.8
20260507054048 13 247 8.0 14.5 0.00 0.00 0.00 69 1012.5
20260507053041 13 244 6.4 12.9 0.00 0.00 0.00 69 1012.4
20260507052033 13 243 6.4 11.3 0.00 0.00 0.00 70 1012.5
20260507051026 13 240 6.4 12.9 0.00 0.00 0.00 71 1012.3
20260507050018 13 241 6.4 12.9 0.00 0.00 0.00 71 1012.4
20260507045011 13 241 8.0 17.7 0.00 0.00 0.00 72 1012.1
20260507044005 13 236 6.4 12.9 0.00 0.00 0.00 72 1012.1
20260507042958 13 239 6.4 14.5 0.00 0.00 0.00 72 1011.9
20260507041951 12 244 9.7 20.9 0.00 0.00 0.00 73 1011.8
20260507040942 12 241 9.7 14.5 0.00 0.00 0.00 73 1011.4
20260507035935 12 241 6.4 11.3 0.00 0.00 0.00 73 1011.4
20260507034928 12 238 6.4 11.3 0.00 0.00 0.00 73 1011.3
20260507033921 13 247 8.0 14.5 0.00 0.00 0.00 72 1011.4
20260507032913 13 243 11.3 17.7 0.00 0.00 0.00 72 1011.2
20260507031906 13 241 9.7 17.7 0.00 0.00 0.00 72 1011.3
20260507030857 13 242 9.7 16.1 0.00 0.00 0.00 71 1011.1
20260507025851 13 240 8.0 12.9 0.00 0.00 0.00 71 1010.9
20260507024844 13 243 6.4 12.9 0.00 0.00 0.00 71 1010.8
20260507023838 13 239 6.4 11.3 0.00 0.00 0.00 71 1010.7
20260507022830 13 240 8.0 17.7 0.00 0.00 0.00 71 1010.7
20260507021823 14 241 11.3 17.7 0.00 0.00 0.00 71 1010.8
20260507020816 14 239 11.3 17.7 0.00 0.00 0.00 71 1010.6
20260507015808 14 243 11.3 17.7 0.00 0.00 0.00 70 1010.7
20260507014801 14 245 11.3 17.7 0.00 0.00 0.00 70 1010.5
20260507013754 14 241 11.3 17.7 0.00 0.00 0.00 71 1010.6
20260507012746 14 238 8.0 16.1 0.00 0.00 0.00 72 1010.5
20260507011738 14 241 6.4 11.3 0.00 0.00 0.00 72 1010.2
20260507010731 14 244 8.0 16.1 0.00 0.00 0.00 72 1010.2
20260507005724 15 241 14.5 22.5 0.00 0.00 0.00 71 1010.2
20260507004718 15 242 11.3 25.7 0.00 0.00 0.00 71 1010.0
20260507003710 15 245 8.0 16.1 0.00 0.00 0.00 70 1010.1
20260507002703 14 210 0.0 4.8 0.00 0.00 0.00 72 1009.9
20260507001703 15 233 3.2 4.8 0.00 0.00 0.00 70 1009.6
20260507000657 15 239 6.4 11.3 0.00 0.00 0.00 68 1009.6
20260506235650 15 247 8.0 12.9 0.00 0.00 0.00 68 1009.6
20260506234641 15 246 8.0 14.5 0.00 0.00 0.00 67 1009.4
20260506233635 15 249 8.0 16.1 0.00 0.00 0.00 67 1009.3
20260506232628 15 238 6.4 9.7 0.00 0.00 0.00 67 1009.1
20260506231622 15 227 1.6 4.8 0.00 0.00 0.00 65 1009.0
20260506230614 16 221 1.6 4.8 0.00 0.00 0.00 63 1008.8
20260506225607 16 235 4.8 12.9 0.00 0.00 0.00 62 1008.7
20260506224600 16 239 8.0 12.9 0.00 0.00 0.00 63 1008.7
20260506223552 16 240 6.4 9.7 0.00 0.00 0.00 63 1008.4
20260506222545 17 238 6.4 12.9 0.00 0.00 0.00 62 1007.8
20260506221545 17 246 8.0 20.9 0.00 0.00 0.00 61 1007.8
20260506220539 17 245 8.0 20.9 0.00 0.00 0.00 61 1007.6
20260506215532 17 226 3.2 9.7 0.00 0.00 0.00 61 1007.3
20260506214526 17 243 6.4 12.9 0.00 0.00 0.00 58 1007.2
20260506213518 17 243 8.0 24.1 0.00 0.00 0.00 57 1007.1
20260506212511 17 207 1.6 6.4 0.00 0.00 0.00 60 1006.4
20260506211503 17 154 1.6 9.7 0.00 0.00 0.00 58 1006.2
20260506210456 18 126 3.2 9.7 0.00 0.00 0.00 58 1006.2
20260506205449 18 128 3.2 11.3 0.00 0.00 0.00 57 1006.2
20260506204441 17 162 1.6 6.4 0.00 0.00 0.00 58 1006.0
20260506203434 17 145 1.6 6.4 0.00 0.00 0.00 60 1006.1
20260506202427 17 148 1.6 6.4 0.00 0.00 0.00 60 1005.9
20260506201419 18 99 3.2 12.9 0.00 0.00 0.00 57 1005.9
20260506200412 18 105 4.8 11.3 0.00 0.00 0.00 54 1005.4
20260506195406 19 77 6.4 12.9 0.00 0.00 0.00 54 1005.5
20260506194359 19 113 3.2 11.3 0.00 0.00 0.00 53 1005.4
20260506193352 20 110 3.2 11.3 0.00 0.00 0.00 52 1005.4
20260506192345 20 107 4.8 17.7 0.00 0.00 0.00 51 1004.7